Wind_Speed
102 90 82 73 65 55 49 45 45 45 43 47 50 55 61 67 73 80 86 89 93 96 102 109 108 106 103
87 79 70 64 54 48 42 41 43 44 45 48 52 55 58 64 69 75 81 84 87 91 93 100 104 104 102
76 66 59 50 46 42 38 38 40 44 45 47 51 55 56 61 65 73 77 84 89 89 88 88 91 92 94
62 57 48 44 41 38 37 37 39 41 44 47 49 50 54 58 62 66 75 80 82 93 96 93 91 88 88
56 50 43 40 36 37 37 35 36 39 41 45 47 48 51 55 59 63 69 75 76 77 83 86 85 83 85
46 46 40 36 38 39 36 35 36 38 41 43 46 47 48 50 55 58 62 66 69 73 75 77 79 81 84
42 41 38 36 39 37 37 36 37 39 39 40 43 45 47 49 51 54 58 60 64 67 69 72 74 77 81
37 39 39 39 39 37 38 38 38 38 39 40 42 43 45 48 50 52 54 56 59 61 64 67 69 71 74
36 39 40 41 38 37 37 37 38 39 40 40 41 42 44 45 47 48 50 51 53 56 59 62 64 67 70
35 37 40 39 38 37 37 37 38 38 39 39 40 41 42 42 43 45 46 48 50 51 53 55 58 60 62
32 36 37 37 38 38 36 36 35 37 38 39 40 40 40 40 41 42 44 45 46 47 50 52 54 56 57
33 35 37 36 35 34 35 33 33 35 36 37 37 37 37 38 38 38 40 41 42 42 43 45 47 49 51
35 36 35 33 33 31 29 31 33 34 34 34 34 34 34 34 35 35 35 36 37 39 40 40 40 40 41
35 35 34 34 30 29 30 31 31 31 32 32 31 32 31 30 31 31 29 29 29 30 32 34 36 38 41
35 35 35 33 31 31 31 31 30 30 30 30 28 27 28 25 22 22 25 27 29 31 33 35 37 38 40
36 36 35 33 32 32 31 30 30 30 29 27 26 23 21 19 21 23 26 28 30 31 33 33 34 36 38
34 34 34 33 32 31 30 30 30 28 26 24 21 18 18 19 21 24 27 28 29 30 30 31 33 35 37
Wind_Direction
304 300 296 291 288 284 277 262 253 247 241 239 236 235 234 234 232 232 232 234 235 235 234 237 242 245 246
300 295 290 287 284 279 266 254 248 244 239 234 235 234 234 235 233 231 233 234 235 240 240 240 241 244 248
296 289 287 282 279 270 257 249 245 244 243 237 236 237 235 234 233 233 234 234 236 239 243 245 247 248 251
289 285 281 277 271 261 256 248 244 242 242 242 239 237 237 236 235 235 235 236 239 239 244 246 249 252 252
284 277 275 269 259 253 248 245 243 241 240 240 242 241 239 239 238 236 237 238 239 242 244 246 249 250 253
274 271 266 255 247 247 245 240 240 240 240 241 243 243 243 241 241 240 240 241 243 244 245 247 248 250 251
268 262 255 246 244 244 241 239 239 241 242 243 244 244 245 246 245 245 244 243 245 245 247 248 250 251 252
257 250 246 243 242 240 238 237 238 240 242 244 245 245 245 246 247 247 248 249 248 248 249 250 251 252 253
249 243 240 244 242 241 240 238 237 238 241 243 245 245 245 247 248 249 251 252 253 253 254 255 256 257 258
246 241 239 241 239 242 241 240 238 239 240 242 243 246 248 249 250 252 254 256 258 258 259 260 261 262 262
239 236 241 241 240 242 243 243 240 238 241 241 244 247 249 252 256 258 259 260 261 262 262 263 263 264 264
237 238 240 243 245 245 246 245 241 240 242 245 248 251 254 257 259 260 261 263 264 264 264 263 264 264 266
236 240 242 243 244 245 245 240 239 241 244 249 252 254 257 259 262 264 265 267 267 267 266 267 268 269 270
236 238 240 241 243 243 241 237 239 243 247 249 251 255 259 261 264 266 266 265 266 268 269 271 272 274 275
233 235 236 238 237 235 235 237 241 243 246 249 252 256 260 260 259 264 267 269 272 274 275 277 278 278 278
231 231 231 231 230 232 235 237 239 243 246 249 253 252 252 258 264 268 273 275 276 277 278 279 279 281 283
231 229 230 227 229 231 231 235 239 243 246 247 242 247 254 263 268 274 278 279 281 281 281 283 285 287 290
Height
10319 10307 10300 10292 10288 10287 10286 10287 10289 10293 10300 10306 10312 10319 10327 10336 10345 10355 10363 10372 10379 10387 10394 10400 10407 10415 10428
10295 10286 10280 10275 10273 10271 10272 10274 10277 10280 10286 10292 10298 10305 10313 10321 10330 10339 10347 10357 10366 10371 10378 10387 10390 10397 10404
10273 10266 10262 10260 10258 10258 10260 10263 10266 10271 10275 10281 10287 10294 10302 10307 10315 10323 10331 10339 10348 10353 10361 10367 10373 10381 10386
10254 10249 10248 10247 10247 10248 10251 10253 10256 10260 10265 10270 10276 10283 10290 10296 10303 10309 10314 10322 10330 10337 10343 10348 10353 10358 10362
10236 10234 10235 10235 10236 10238 10240 10244 10247 10251 10255 10260 10266 10272 10277 10283 10289 10296 10301 10307 10313 10319 10325 10330 10335 10340 10343
10220 10219 10221 10224 10225 10228 10231 10235 10239 10243 10247 10252 10257 10262 10268 10273 10277 10283 10287 10294 10299 10303 10308 10313 10317 10322 10325
10206 10206 10209 10213 10216 10219 10222 10226 10230 10234 10239 10244 10249 10253 10258 10262 10266 10270 10275 10280 10284 10288 10292 10297 10301 10304 10306
10193 10194 10197 10201 10206 10211 10214 10218 10222 10227 10231 10236 10240 10244 10248 10251 10255 10258 10262 10267 10270 10274 10277 10281 10284 10285 10288
10181 10184 10187 10192 10197 10201 10206 10210 10215 10219 10223 10227 10230 10234 10237 10240 10243 10246 10250 10253 10256 10259 10262 10264 10266 10268 10269
10171 10175 10179 10184 10189 10193 10197 10202 10207 10211 10214 10218 10221 10224 10227 10230 10232 10234 10237 10240 10242 10245 10247 10248 10250 10251 10252
10163 10166 10171 10176 10180 10185 10189 10193 10198 10202 10205 10208 10211 10214 10217 10219 10221 10224 10226 10228 10230 10232 10233 10234 10234 10235 10235
10155 10159 10163 10168 10173 10177 10181 10186 10190 10193 10196 10199 10202 10205 10207 10210 10212 10214 10215 10217 10218 10219 10219 10219 10219 10219 10218
10147 10152 10156 10161 10165 10170 10174 10178 10181 10185 10188 10191 10194 10196 10198 10200 10202 10204 10204 10205 10206 10206 10206 10205 10205 10206 10205
10139 10144 10148 10153 10158 10162 10167 10170 10174 10178 10180 10183 10186 10188 10190 10192 10193 10194 10194 10194 10195 10195 10195 10195 10195 10194 10193
10131 10136 10141 10146 10151 10155 10159 10163 10167 10171 10173 10176 10178 10180 10182 10183 10184 10185 10185 10185 10186 10185 10185 10184 10184 10182 10180
10123 10128 10134 10139 10143 10148 10153 10157 10160 10163 10166 10168 10171 10172 10174 10175 10176 10177 10176 10176 10176 10175 10175 10173 10172 10170 10168
10116 10121 10127 10132 10137 10142 10146 10150 10153 10157 10159 10161 10163 10166 10168 10169 10170 10169 10169 10168 10167 10166 10165 10163 10161 10160 10158